View from above orbital plane
|
View from above satellite
|
Ground track
|
The orbit data is extracted from the following two-line orbital elements,
1 40032U 14033Y 22135.84349037 .00003161 00000-0 33521-3 0 9999
2 40032 97.9372 68.4987 0012165 154.6521 205.5295 14.89769815428762
Epoch (UTC): | 15 May 2022 20:14:37 |
Eccentricity: | 0.0012165 |
inclination: | 97.9372° |
perigee height: | 590 km |
apogee height: | 607 km |
right ascension of ascending node: | 68.4987° |
argument of perigee: | 154.6521° |
revolutions per day: | 14.89769815 |
mean anomaly at epoch: | 205.5295° |
orbit number at epoch: | 42876 |
The dashed part of the orbit path shows where the satellite is in the earth's shadow,
|
|